Stations météo

réclame
Mon MeteoGroup
Faßberg, Allemagne (10246): Température de l'air & dewpoint: 14.10.2018 21:00:00 - 20.10.2018 21:00:00 (CEST)Faßberg, Allemagne (10246): Vitesse du vent: 14.10.2018 21:00:00 - 20.10.2018 21:00:00 (CEST)Faßberg, Allemagne (10246): Direction du vent: 14.10.2018 21:00:00 - 20.10.2018 21:00:00 (CEST)Faßberg, Allemagne (10246): reduced air pressure: 14.10.2018 21:00:00 - 20.10.2018 21:00:00 (CEST)Faßberg, Allemagne (10246): visibility: 14.10.2018 21:00:00 - 20.10.2018 21:00:00 (CEST)
Date & Time tt [°C] td [°C] ff [km/h] ff [knt] dd ppp [hPa] vv [km]
20.10.2018 21:00:00 8,7 5,3 4 2 N 1029,8 20
20.10.2018 20:00:00 9,7 5,5 7 4 WNW 1029,4 20
20.10.2018 19:00:00 11,8 5,7 11 6 WSW 1029,1 20
20.10.2018 18:00:00 12,3 5,5 7 4 W 1029,2 20
20.10.2018 17:00:00 13,1 5,0 11 6 W 1029,3 20
20.10.2018 16:00:00 12,8 4,8 14 8 W 1029,1 20
20.10.2018 15:00:00 12,7 4,3 18 10 WNW 1029,4 20
20.10.2018 14:00:00 12,5 3,5 18 10 WNW 1029,6 20
20.10.2018 13:00:00 12,0 2,9 18 10 W 1029,8 20
20.10.2018 12:00:00 9,3 4,1 7 4 WSW 1030,1 20
20.10.2018 11:00:00 6,9 3,7 11 6 W 1030,1 20
20.10.2018 10:00:00 4,5 2,9 4 2 WSW 1030,0 10
20.10.2018 09:00:00 1,3 0,6 0 0 N 1029,6 10
20.10.2018 08:00:00 -0,2 -0,9 4 2 N 1029,2 8
20.10.2018 07:00:00 1,2 0,3 4 2 NW 1028,9 8
20.10.2018 06:00:00 2,5 1,2 4 2 SSW 1028,0 30
20.10.2018 05:00:00 3,2 1,9 0 0 N 1028,1 30
20.10.2018 04:00:00 2,5 1,1 4 2 N 1027,9 30
20.10.2018 03:00:00 2,7 1,1 0 0 N 1027,8 30
20.10.2018 02:00:00 2,5 1,2 0 0 N 1027,7 30
20.10.2018 01:00:00 2,1 1,1 0 0 N 1027,5 30
20.10.2018 00:00:00 2,0 0,8 4 2 NNW 1027,3 30
19.10.2018 23:00:00 2,9 1,5 4 2 E 1027,0 30
19.10.2018 22:00:00 3,1 2,0 4 2 E 1027,2 30
19.10.2018 21:00:00 4,4 2,7 4 2 NNE 1026,9 30
19.10.2018 20:00:00 6,8 3,9 4 2 NE 1026,4 30
19.10.2018 19:00:00 9,1 4,7 7 4 NE 1025,9 30
19.10.2018 18:00:00 11,1 4,8 7 4 E 1025,4 30
19.10.2018 17:00:00 12,1 4,0 11 6 ENE 1025,3 30
19.10.2018 16:00:00 12,7 4,1 11 6 ESE 1025,5 30
19.10.2018 15:00:00 13,2 3,8 7 4 E 1025,9 30
19.10.2018 14:00:00 12,5 3,8 7 4 N 1026,3 30
19.10.2018 13:00:00 12,0 3,4 4 2 ENE 1026,8 25
19.10.2018 12:00:00 10,9 3,7 7 4 E 1027,1 20
19.10.2018 11:00:00 7,1 5,1 4 2 N 1027,5 12
19.10.2018 10:00:00 1,5 0,9 0 0 N 1027,6 1,0
19.10.2018 09:00:00 -1,4 -1,8 4 2 E 1027,2 0,3
19.10.2018 08:00:00 -2,0 -2,4 0 0 N 1026,9 -
19.10.2018 07:00:00 -1,5 -1,9 2 1 - 1026,8 0,6
19.10.2018 06:00:00 -1,2 -1,6 0 0 N 1026,7 0,8
19.10.2018 05:00:00 -0,2 -0,6 4 2 ENE 1026,4 0,4
19.10.2018 04:00:00 0,8 0,3 4 2 ENE 1026,2 0,4
19.10.2018 03:00:00 1,0 0,4 4 2 E 1026,4 0,6
19.10.2018 02:00:00 2,1 1,5 0 0 N 1026,4 0,6
19.10.2018 01:00:00 3,5 2,9 0 0 N 1026,6 15
19.10.2018 00:00:00 4,8 4,1 0 0 N 1026,4 15
18.10.2018 23:00:00 6,2 5,5 4 2 ESE 1026,2 15
18.10.2018 22:00:00 8,5 7,3 4 2 NNE 1026,0 15
18.10.2018 21:00:00 10,0 8,8 7 4 NNE 1025,5 10
18.10.2018 20:00:00 11,2 9,4 7 4 NNE 1024,9 10
18.10.2018 19:00:00 12,0 10,6 11 6 NNE 1024,4 5
18.10.2018 18:00:00 13,2 10,7 18 10 NNE 1023,5 10
18.10.2018 17:00:00 14,5 10,6 18 10 N 1023,2 10
18.10.2018 16:00:00 15,6 9,4 14 8 N 1022,9 10
18.10.2018 15:00:00 15,6 9,2 14 8 N 1022,9 10
18.10.2018 14:00:00 16,1 9,2 14 8 N 1022,7 10
18.10.2018 13:00:00 14,5 9,5 11 6 N 1023,0 10
18.10.2018 12:00:00 14,2 10,0 14 8 NNE 1022,8 10
18.10.2018 11:00:00 13,7 10,3 11 6 N 1022,5 10
18.10.2018 10:00:00 12,7 11,1 7 4 NNW 1022,4 4,0
18.10.2018 09:00:00 12,1 10,8 7 4 NNW 1022,1 3,7
18.10.2018 08:00:00 12,3 11,0 7 4 WNW 1021,5 4,0
18.10.2018 07:00:00 12,5 11,4 7 4 NNW 1021,2 2,0
18.10.2018 06:00:00 12,1 11,5 11 6 NNW 1021,1 1,5
18.10.2018 05:00:00 12,0 11,5 8 4 N 1020,8 1,8
18.10.2018 04:00:00 11,3 10,8 7 4 NNW 1020,8 1,6
18.10.2018 03:00:00 8,3 7,6 4 2 NW 1020,7 4,0
18.10.2018 02:00:00 7,7 6,9 0 0 N 1020,6 8
18.10.2018 01:00:00 7,4 6,7 4 2 N 1020,6 8
18.10.2018 00:00:00 9,0 8,2 0 0 N 1020,5 8
17.10.2018 23:00:00 10,0 8,6 0 0 N 1020,1 9
17.10.2018 22:00:00 11,0 9,2 4 2 E 1020,0 12
17.10.2018 21:00:00 12,7 10,0 4 2 NNE 1019,5 12
17.10.2018 20:00:00 13,4 10,6 4 2 ESE 1019,2 15
17.10.2018 19:00:00 15,9 10,8 0 0 N 1018,7 15
17.10.2018 18:00:00 19,2 10,8 7 4 E 1018,5 20
17.10.2018 17:00:00 22,2 10,7 7 4 ESE 1018,1 20
17.10.2018 16:00:00 22,8 10,0 11 6 E 1018,0 18
17.10.2018 15:00:00 22,4 10,3 4 2 SSW 1018,3 18
17.10.2018 14:00:00 22,2 10,6 7 4 N 1018,7 15
17.10.2018 13:00:00 21,4 11,6 7 4 WSW 1019,2 15
17.10.2018 12:00:00 19,7 12,3 4 2 N 1019,4 12
17.10.2018 11:00:00 17,5 12,2 4 2 N 1019,6 9
17.10.2018 10:00:00 13,9 11,0 7 4 NNW 1019,9 6
17.10.2018 09:00:00 8,2 7,5 2 1 SE 1019,7 2,0
17.10.2018 08:00:00 6,8 6,1 4 2 SE 1019,7 6
17.10.2018 07:00:00 7,9 7,3 0 0 N 1019,6 9
17.10.2018 06:00:00 7,8 7,2 0 0 N 1019,5 11
17.10.2018 05:00:00 7,8 7,2 4 2 E 1019,4 15
17.10.2018 04:00:00 8,2 7,5 4 2 SSE 1019,4 30
17.10.2018 03:00:00 9,7 8,9 0 0 N 1019,6 30
17.10.2018 02:00:00 10,8 9,8 4 2 NW 1019,8 30
17.10.2018 01:00:00 11,0 10,4 0 0 N 1019,8 30
17.10.2018 00:00:00 11,4 10,6 4 2 SE 1020,0 30
16.10.2018 23:00:00 12,5 11,0 4 2 ESE 1020,0 30
16.10.2018 22:00:00 13,4 11,7 4 2 SSE 1020,0 30
16.10.2018 21:00:00 13,8 11,2 4 2 N 1019,9 30
16.10.2018 20:00:00 14,1 10,7 4 2 N 1019,8 30
16.10.2018 19:00:00 17,3 12,6 7 4 W 1019,1 30
16.10.2018 18:00:00 18,6 12,4 7 4 NW 1018,8 30
16.10.2018 17:00:00 20,4 11,9 11 6 WNW 1018,8 30
16.10.2018 16:00:00 21,6 11,3 14 8 NW 1018,6 30
16.10.2018 15:00:00 21,9 11,6 14 8 NW 1018,6 30
16.10.2018 14:00:00 22,1 11,6 11 6 WNW 1018,7 30
16.10.2018 13:00:00 21,4 11,2 11 6 WNW 1018,6 20
16.10.2018 12:00:00 20,1 11,3 4 2 N 1018,7 20
16.10.2018 11:00:00 16,3 10,0 4 2 NW 1018,7 20
16.10.2018 10:00:00 8,1 6,0 4 2 W 1018,6 20
16.10.2018 09:00:00 6,8 4,8 4 2 N 1018,4 20
16.10.2018 08:00:00 5,8 4,6 4 2 ENE 1017,9 20
16.10.2018 07:00:00 5,8 4,7 4 2 NNE 1017,4 20
16.10.2018 06:00:00 6,3 4,8 4 2 NNW 1017,2 20
16.10.2018 05:00:00 5,7 4,5 4 2 E 1017,0 20
16.10.2018 04:00:00 7,0 5,2 4 2 N 1016,7 25
16.10.2018 03:00:00 7,5 5,9 0 0 N 1016,4 25
16.10.2018 02:00:00 8,1 6,0 4 2 WNW 1016,3 20
16.10.2018 01:00:00 7,8 6,1 4 2 E 1015,9 20
16.10.2018 00:00:00 8,9 6,5 4 2 ESE 1015,9 20
15.10.2018 23:00:00 10,5 7,6 4 2 E 1015,7 25
15.10.2018 22:00:00 12,7 8,5 4 2 NE 1015,3 25
15.10.2018 21:00:00 13,7 7,7 4 2 NNW 1015,1 25
15.10.2018 20:00:00 14,8 9,2 11 6 SSE 1014,7 25
15.10.2018 19:00:00 16,8 9,1 4 2 SE 1014,3 25
15.10.2018 18:00:00 22,2 8,0 7 4 SSW 1013,7 25
15.10.2018 17:00:00 24,0 8,2 11 6 S 1013,2 25
15.10.2018 16:00:00 24,5 8,5 7 4 WSW 1013,2 25
15.10.2018 15:00:00 24,2 8,2 11 6 W 1013,3 25
15.10.2018 14:00:00 23,7 7,7 14 8 WSW 1013,2 25
15.10.2018 13:00:00 22,7 7,6 11 6 SW 1013,4 25
15.10.2018 12:00:00 21,5 7,7 11 6 SW 1013,4 25
15.10.2018 11:00:00 18,4 7,5 11 6 SSW 1013,5 25
15.10.2018 10:00:00 13,0 8,1 4 2 ENE 1013,4 25
15.10.2018 09:00:00 7,2 5,6 7 4 E 1013,5 20
15.10.2018 08:00:00 4,8 3,8 7 4 E 1013,3 12
15.10.2018 07:00:00 5,1 4,0 4 2 ESE 1012,9 30
15.10.2018 06:00:00 5,7 4,6 7 4 E 1012,7 20
15.10.2018 05:00:00 5,9 4,5 7 4 E 1012,8 20
15.10.2018 04:00:00 6,6 5,3 7 4 E 1012,6 20
15.10.2018 03:00:00 6,4 4,9 7 4 E 1012,6 20
15.10.2018 02:00:00 7,2 5,4 4 2 E 1012,6 20
15.10.2018 01:00:00 9,1 6,9 7 4 N 1012,3 20
15.10.2018 00:00:00 10,8 7,3 4 2 S 1012,0 20
14.10.2018 23:00:00 11,0 6,5 11 6 SSE 1012,1 20
14.10.2018 22:00:00 12,8 6,7 4 2 SE 1012,1 20
14.10.2018 21:00:00 15,9 7,5 4 2 N 1012,2 30

tt = Température de l'air
td = dewpoint
ff = Vitesse du vent
dd = Direction du vent
ppp = reduced air pressure
vv = visibility

stations d'obs. à proximité